Tracking 33679 objects as of 4-Apr-2026
HD Live streaming from Space Station
objects crossing your sky now
Track ARTEMIS 2 (INTEGRITY)

FORMOSAT7-2/COSMIC2-2

Track FORMOSAT7-2/COSMIC2-2 now!
10-day predictions


NORAD ID: 44351
Int'l Code: 2019-036N
Perigee: 585.2 km
Apogee: 586.5 km
Inclination: 24.0 °
Period: 96.2 minutes
Semi major axis: 6956 km
RCS: Unknown
Launch date: June 25, 2019
Source: Taiwan (Republic of China) (ROC)
Launch site: AIR FORCE EASTERN TEST RANGE (AFETR)
Your satellite tracking list
Your tracking list is empty




NASA's NSSDC Master Catalog

Two Line Element Set (TLE):
1 44351U 19036N   26093.93816909  .00005480  00000-0  44841-3 0  9992
2 44351  23.9984 289.2526 0000902  55.9883 304.0704 14.96184826372455
Source of the keplerian elements: AFSPC